When you browse on this site, cookies collect data to enhance your experience and personalize the content and advertising you see.
Visit our Privacy Policy to learn more. By continuing to use the site, you agree to this use of cookies and data.
  • In Hungary
  • List of Countries
  • For 7 days
  • Water Temperature
  • Weather Map
  • News
  • Weather Widgets
  • user-avatar
    Login

    Hourly Weather Nakolec

    Today, 10 December, Tuesday

    Time Temperature Precipitation Wind Pressure Humidity
    00:00 +4°C° 0 mm 1 mps 669 mmHg 89%
    01:00 +4°C° 0 mm 1 mps 669 mmHg 90%
    02:00 +4°C° 0.1 mm 1 mps 669 mmHg 91%
    03:00 +4°C° 0.1 mm 1 mps 669 mmHg 92%
    04:00 +4°C° 0.1 mm 1 mps 668 mmHg 94%
    05:00 +4°C° 0 mm 1 mps 668 mmHg 94%
    06:00 +4°C° 0 mm 1 mps 669 mmHg 94%
    07:00 +4°C° 0 mm 1 mps 669 mmHg 95%
    08:00 +5°C° 0.1 mm 1 mps 669 mmHg 93%
    09:00 +5°C° 0.1 mm 1 mps 669 mmHg 91%
    10:00 +6°C° 0.1 mm 1 mps 669 mmHg 89%
    11:00 +5°C° 0.1 mm 2 mps 668 mmHg 87%
    12:00 +6°C° 0.1 mm 2 mps 668 mmHg 85%
    13:00 +6°C° 0.1 mm 2 mps 668 mmHg 83%
    14:00 +6°C° 0.2 mm 2 mps 668 mmHg 86%
    15:00 +5°C° 0.2 mm 2 mps 667 mmHg 89%
    16:00 +5°C° 0.2 mm 2 mps 667 mmHg 92%
    17:00 +5°C° 0.9 mm 2 mps 667 mmHg 93%
    18:00 +5°C° 0.9 mm 2 mps 667 mmHg 94%
    19:00 +5°C° 0.9 mm 2 mps 667 mmHg 96%
    20:00 +4°C° 2.9 mm 2 mps 667 mmHg 96%
    21:00 +3°C° 2.9 mm 3 mps 667 mmHg 97%
    22:00 +3°C° 2.9 mm 3 mps 667 mmHg 97%
    23:00 +2°C° 2.2 mm 3 mps 667 mmHg 97%

    Tomorrow, 11 December, Wednesday

    Time Temperature Precipitation Wind Pressure Humidity
    00:00 +2°C° 2.2 mm 3 mps 667 mmHg 97%
    01:00 +2°C° 2.2 mm 3 mps 667 mmHg 97%
    02:00 +2°C° 1 mm 3 mps 667 mmHg 97%
    03:00 +3°C° 1 mm 2 mps 667 mmHg 97%
    04:00 +3°C° 1 mm 2 mps 667 mmHg 97%
    05:00 +2°C° 0.8 mm 2 mps 667 mmHg 97%
    06:00 +2°C° 0.8 mm 2 mps 667 mmHg 97%
    07:00 +2°C° 0.8 mm 2 mps 667 mmHg 97%
    08:00 +2°C° 0.4 mm 2 mps 668 mmHg 97%
    09:00 +2°C° 0.4 mm 2 mps 668 mmHg 96%
    10:00 +2°C° 0.4 mm 2 mps 668 mmHg 95%
    11:00 +2°C° 0.2 mm 2 mps 668 mmHg 95%
    12:00 +2°C° 0.2 mm 2 mps 668 mmHg 94%
    13:00 +3°C° 0.2 mm 2 mps 668 mmHg 93%
    14:00 +2°C° 0.2 mm 2 mps 668 mmHg 94%
    15:00 +2°C° 0.2 mm 2 mps 667 mmHg 95%
    16:00 +2°C° 0.2 mm 2 mps 667 mmHg 95%
    17:00 +2°C° 0.1 mm 2 mps 668 mmHg 95%
    18:00 +3°C° 0.1 mm 1 mps 668 mmHg 95%
    19:00 +3°C° 0.1 mm 1 mps 668 mmHg 95%
    20:00 +3°C° 0 mm 1 mps 668 mmHg 95%
    21:00 +3°C° 0 mm 1 mps 668 mmHg 95%
    22:00 +3°C° 0 mm 1 mps 668 mmHg 95%
    23:00 +3°C° 0 mm 1 mps 668 mmHg 95%

    Day after tomorrow, 12 December, Thursday

    Time Temperature Precipitation Wind Pressure Humidity
    00:00 +3°C° 0 mm 1 mps 668 mmHg 96%
    01:00 +3°C° 0 mm 1 mps 668 mmHg 96%
    02:00 +3°C° 0 mm 1 mps 667 mmHg 95%
    03:00 +3°C° 0 mm 1 mps 667 mmHg 95%
    04:00 +2°C° 0 mm 0 mps 667 mmHg 95%
    05:00 +2°C° 0 mm 0 mps 667 mmHg 94%
    06:00 +2°C° 0 mm 0 mps 667 mmHg 94%
    07:00 +3°C° 0 mm 1 mps 667 mmHg 94%
    08:00 +4°C° 0 mm 1 mps 667 mmHg 91%
    09:00 +5°C° 0 mm 1 mps 667 mmHg 87%
    10:00 +6°C° 0 mm 1 mps 668 mmHg 84%
    11:00 +6°C° 0 mm 1 mps 667 mmHg 81%
    12:00 +7°C° 0 mm 1 mps 667 mmHg 78%
    13:00 +8°C° 0 mm 1 mps 667 mmHg 75%
    14:00 +7°C° 0 mm 1 mps 667 mmHg 78%
    15:00 +6°C° 0 mm 1 mps 667 mmHg 82%
    16:00 +6°C° 0 mm 1 mps 667 mmHg 85%
    17:00 +5°C° 0.1 mm 1 mps 667 mmHg 86%
    18:00 +5°C° 0.1 mm 1 mps 667 mmHg 87%
    19:00 +5°C° 0.1 mm 1 mps 667 mmHg 88%
    20:00 +5°C° 0.1 mm 1 mps 667 mmHg 89%
    21:00 +5°C° 0.1 mm 1 mps 667 mmHg 89%
    22:00 +5°C° 0.1 mm 1 mps 667 mmHg 90%
    23:00 +4°C° 0.1 mm 1 mps 667 mmHg 90%

    13 December, Friday

    Time Temperature Precipitation Wind Pressure Humidity
    00:00 +4°C° 0.1 mm 1 mps 666 mmHg 91%
    01:00 +4°C° 0.1 mm 1 mps 666 mmHg 91%
    02:00 +4°C° 0 mm 1 mps 666 mmHg 91%
    03:00 +3°C° 0 mm 1 mps 666 mmHg 90%
    04:00 +3°C° 0 mm 1 mps 666 mmHg 90%
    05:00 +3°C° 0 mm 1 mps 666 mmHg 90%
    06:00 +3°C° 0 mm 1 mps 666 mmHg 91%
    07:00 +3°C° 0 mm 1 mps 666 mmHg 91%
    08:00 +2°C° 0.1 mm 2 mps 666 mmHg 89%
    09:00 +3°C° 0.1 mm 2 mps 666 mmHg 87%
    10:00 +4°C° 0.1 mm 2 mps 666 mmHg 85%
    11:00 +4°C° 0.1 mm 2 mps 666 mmHg 81%
    12:00 +5°C° 0.1 mm 2 mps 665 mmHg 76%
    13:00 +5°C° 0.1 mm 2 mps 665 mmHg 72%
    14:00 +5°C° 0 mm 2 mps 665 mmHg 74%
    15:00 +4°C° 0 mm 2 mps 665 mmHg 77%
    16:00 +3°C° 0 mm 2 mps 664 mmHg 79%
    17:00 +3°C° 0 mm 2 mps 664 mmHg 81%
    18:00 +3°C° 0 mm 2 mps 664 mmHg 83%
    19:00 +3°C° 0 mm 2 mps 664 mmHg 84%
    20:00 +1°C° 0 mm 3 mps 663 mmHg 85%
    21:00 +1°C° 0 mm 3 mps 663 mmHg 86%
    22:00 0°C° 0 mm 4 mps 662 mmHg 87%
    23:00 0°C° 0 mm 4 mps 662 mmHg 88%

    14 December, Saturday

    Time Temperature Precipitation Wind Pressure Humidity
    00:00 0°C° 0 mm 4 mps 661 mmHg 89%
    01:00 0°C° 0 mm 4 mps 660 mmHg 89%
    02:00 0°C° 0.8 mm 4 mps 659 mmHg 91%
    03:00 +1°C° 0.8 mm 3 mps 659 mmHg 93%
    04:00 +1°C° 0.8 mm 3 mps 658 mmHg 94%
    05:00 +2°C° 0.9 mm 3 mps 659 mmHg 95%
    06:00 +3°C° 0.9 mm 2 mps 659 mmHg 95%
    07:00 +3°C° 0.9 mm 2 mps 659 mmHg 96%
    08:00 +3°C° 0.7 mm 2 mps 660 mmHg 94%
    09:00 +3°C° 0.7 mm 2 mps 660 mmHg 93%
    10:00 +3°C° 0.7 mm 2 mps 661 mmHg 91%
    11:00 +4°C° 0.4 mm 2 mps 661 mmHg 89%
    12:00 +4°C° 0.4 mm 2 mps 661 mmHg 87%
    13:00 +4°C° 0.4 mm 2 mps 661 mmHg 85%
    14:00 +4°C° 0.1 mm 2 mps 662 mmHg 86%
    15:00 +4°C° 0.1 mm 2 mps 663 mmHg 88%
    16:00 +3°C° 0.1 mm 2 mps 664 mmHg 89%
    17:00 +3°C° 0 mm 2 mps 664 mmHg 90%
    18:00 +3°C° 0 mm 2 mps 665 mmHg 91%
    19:00 +2°C° 0 mm 2 mps 666 mmHg 92%
    20:00 +2°C° 0 mm 2 mps 667 mmHg 92%
    21:00 +2°C° 0 mm 2 mps 668 mmHg 92%
    22:00 +2°C° 0 mm 2 mps 668 mmHg 92%
    23:00 +2°C° 0 mm 2 mps 669 mmHg 91%

    15 December, Sunday

    Time Temperature Precipitation Wind Pressure Humidity
    00:00 +1°C° 0 mm 2 mps 669 mmHg 90%
    01:00 +1°C° 0 mm 2 mps 670 mmHg 88%
    02:00 +2°C° 0 mm 1 mps 670 mmHg 85%
    03:00 +2°C° 0 mm 1 mps 671 mmHg 82%
    04:00 +2°C° 0 mm 1 mps 671 mmHg 79%
    05:00 +2°C° 0 mm 1 mps 672 mmHg 76%
    06:00 +2°C° 0 mm 1 mps 673 mmHg 74%
    07:00 +1°C° 0 mm 0 mps 674 mmHg 71%
    08:00 +3°C° 0 mm 0 mps 674 mmHg 66%
    09:00 +5°C° 0 mm 0 mps 675 mmHg 61%
    10:00 +7°C° 0 mm 0 mps 676 mmHg 57%
    11:00 +8°C° 0 mm 0 mps 677 mmHg 54%
    12:00 +9°C° 0 mm 0 mps 677 mmHg 52%
    13:00 +10°C° 0 mm 0 mps 677 mmHg 49%
    14:00 +8°C° 0 mm 0 mps 677 mmHg 53%
    15:00 +7°C° 0 mm 0 mps 677 mmHg 57%
    16:00 +6°C° 0 mm 0 mps 677 mmHg 60%
    17:00 +7°C° 0 mm 1 mps 678 mmHg 59%
    18:00 +6°C° 0 mm 1 mps 678 mmHg 57%
    19:00 +6°C° 0 mm 1 mps 678 mmHg 56%
    20:00 +6°C° 0 mm 1 mps 679 mmHg 55%
    21:00 +6°C° 0 mm 1 mps 679 mmHg 55%
    22:00 +6°C° 0 mm 1 mps 679 mmHg 55%
    23:00 +5°C° 0 mm 1 mps 680 mmHg 56%
    Show more